Regional Weather Roundup
Issued by NWS

Home | Current Version | Previous Version | Graphics & Text | Print | Product List | Glossary On
Versions: 1 2 3 4 5 6 7 8 9 10 11 12 13 14 15 16 17 18 19 20 21 22 23 24 25 26 27 28 29 30 31 32 33 34 35 36 37 38 39 40 41 42 43 44 45 46 47 48 49 50
000
ASUS43 KLMK 230310
RWRKY
KENTUCKY REGIONAL WEATHER ROUNDUP
NATIONAL WEATHER SERVICE LOUISVILLE KY
1100 PM EDT TUE AUG 22 2017

NOTE "FAIR" INDICATES FEW OR NO CLOUDS BELOW 12,000 FEET
WITH NO SIGNIFICANT WEATHER AND/OR OBSTRUCTIONS TO VISIBILITY.

KYZ001>023-026-027-061>063-070>075-230400-
WESTERN AND SOUTH CENTRAL KENTUCKY

CITY           SKY/WX    TMP DP  RH WIND       PRES   REMARKS
PADUCAH        CLEAR     73  67  81 CALM      30.00R
HENDERSON      NOT AVBL
OWENSBORO      CLOUDY    72  70  93 W5        29.99R
HOPKINSVILLE   CLOUDY    72  72 100 W5        30.00R
BOWLING GREEN  CLOUDY    74  73  97 W5        29.99R
GLASGOW        CLOUDY    72  72 100 CALM      29.98S FOG
$$

KYZ024-025-028>034-038-045-046-053-230400-
NORTH CENTRAL KENTUCKY

CITY           SKY/WX    TMP DP  RH WIND       PRES   REMARKS
LOUISVILLE/SDF CLOUDY    73  71  93 SW6       29.96R
LOUISVILLE/LOU CLOUDY    72  72 100 SW3       29.97R
FORT KNOX      MOCLDY    68  68 100 W5        29.96S FOG
$$

KYZ035>037-039>044-047>052-055>060-089>105-230400-
NORTHEAST KENTUCKY

CITY           SKY/WX    TMP DP  RH WIND       PRES   REMARKS
LEXINGTON      CLOUDY    72  69  90 W3        29.98R
COVINGTON      CLOUDY    71  71 100 SW5       29.95R
FRANKFORT      MOCLDY    71  68  90 SW3       29.96R
$$

KYZ054-064>069-076>088-106>120-230400-
SOUTHEAST KENTUCKY

CITY           SKY/WX    TMP DP  RH WIND       PRES   REMARKS
JACKSON        CLOUDY    71  69  93 CALM      29.99S
LONDON         HVY RAIN  71  69  93 SW7       30.01R FOG
SOMERSET       RAIN      70  70 100 CALM      30.02R
MIDDLESBORO    CLOUDY    73  73 100 CALM      29.99S FOG
MONTICELLO     LGT RAIN  72  71  97 CALM      30.01F
$$





USA.gov is the U.S. government's official web portal to all federal, state and local government web resources and services.